Hourly Weather Roundup
Issued by NWS Central Illinois

Home | Current Version | Previous Version | Text Only | Print | Product List | Glossary On
Versions: 1 2 3 4 5 6 7 8 9 10 11 12 13 14 15 16 17 18 19 20 21 22 23 24 25 26 27 28 29 30 31 32 33 34 35 36 37 38 39 40 41 42 43 44 45 46 47 48 49 50
000
NZUS43 KILX 240110
HWRILX

Area Weather Roundup
National Weather Service Lincoln IL
700 PM CST FRI FEB 23 2018

NOTE:  "FAIR" indicates few or no clouds below 12,000 feet, with
       no sigificant weather and/or obstructions to visibility.


CITY           SKY/WX    TMP DP  RH WIND       PRES   REMARKS
Bloomington    CLOUDY    36  34  92 NW8       30.27F WCI  30
Champaign      CLOUDY    39  38  96 NW7       30.27S WCI  34
Danville       CLOUDY    40  39  95 NW6       30.24S
Decatur        CLOUDY    39  37  92 N7        30.28R WCI  34
Effingham      CLOUDY    47  46  95 W6        30.30R
Flora          LGT RAIN  50  46  87 NW5       30.28R
Galesburg      FAIR      34  32  92 CALM      30.28R
Jacksonville   CLOUDY    37  34  90 N3        30.29R
Lacon          CLOUDY    37  33  88 CALM      30.26F
Lawrenceville  MOCLDY    51  47  86 NW7       30.27R
Litchfield     CLOUDY    40  38  95 N6        30.28R
$$


CITY           SKY/WX    TMP DP  RH WIND       PRES   REMARKS
Lincoln        CLOUDY    38  37  95 CALM      30.29S
Macomb         CLOUDY   N/A N/A N/A CALM      30.30S
Mattoon        CLOUDY    43  41  93 NW9       30.27R
Mt Carmel AP   CLOUDY    50  48  93 W5        30.27R
Olney-Noble AP LGT RAIN  49  47  92 CALM      30.28R
Paris AP       CLOUDY    43  41  93 NW6       30.27S
Peoria         CLOUDY    36  33  89 S6        30.28S WCI  31
Pontiac        CLOUDY    38  37  98 W6        30.28S WCI  33
Rantoul        CLOUDY    40  39  95 W6        30.27S
Robinson       CLOUDY    48  46  91 N6        30.27S
Springfield    CLOUDY    39  35  86 N3        30.28F
Taylorville    CLOUDY    39  38  96 NW8       30.28S WCI  33
$$

...REGIONAL REPORTS...


CITY           SKY/WX    TMP DP  RH WIND       PRES   REMARKS
Chicago O`Hare CLOUDY    38  32  79 W5        30.24R WCI  34
Kankakee       CLOUDY    38  35  89 W8        30.29R WCI  32
Moline         FAIR      35  29  78 NW8       30.27R WCI  29
Mount Sterling CLOUDY    36  33  91 N5        30.28R WCI  32
Mount Vernon   LGT RAIN  48  47  96 CALM      30.27S
Pittsfield     CLOUDY    38  36  93 CALM      30.29S
Quincy         CLOUDY    37  34  89 CALM      30.28R
Rockford       CLOUDY    32  27  81 NW5       30.26S WCI  27
$$


CITY           SKY/WX    TMP DP  RH WIND       PRES   REMARKS
Burlington     CLOUDY    35  29  78 N3        30.27S
Cedar Rapids   FAIR      29  24  82 N10       30.26S WCI  20
Des Moines     CLOUDY    27  22  81 N7        30.28S WCI  19
Kirksville     PTCLDY    33  31  92 CALM      30.26R
Ottumwa        CLOUDY    31  26  82 N7        30.27R WCI  24
St Louis       CLOUDY    44  41  89 N5        30.27S
$$


CITY           SKY/WX    TMP DP  RH WIND       PRES   REMARKS
Terre Haute    CLOUDY    47  43  86 NW8       30.26R
Evansville     FAIR      50  49  96 NW3       30.25R
Indianapolis   CLOUDY    48  44  86 NW7       30.24F
Lafayette      CLOUDY    42  40  92 NW7       30.26R
Madison        MOCLDY    33  26  75 W5        30.24R WCI  29
Milwaukee      MOCLDY    38  30  73 W8        30.23R WCI  32
$$






USA.gov is the U.S. government's official web portal to all federal, state and local government web resources and services.